Location: Barcelona
(41.3830°N, 2.1830°E)
Time: 00:23:24
(UTC+02:00)

ISS - Pass Details

Date: 20 July 2019
Orbit: 409 x 418 km, 51.6° (Epoch: 22 July)

Event Time Altitude Azimuth Distance (km) Brightness Sun altitude
Rises 04:39:22 0° 301° (WNW) 2,344 0.0 -17.5°
Enters shadow 04:41:08 - 297° (WNW) 1,622 -0.9 -17.3°
Exits shadow 04:45:44 34° 170° (S) 702 -3.0 -16.7°
Drops below altitude 10° 04:47:53 10° 146° (SE) 1,467 -1.2 -16.4°
Sets 04:49:59 0° 140° (SE) 2,323 -0.1 -16.2°
